Location: Erlenbrunn
(49.1717°N, 7.6142°E)
Time: 08:48:25
(UTC+00:00)

CZ-4 R/B - Pass Details

Date: 25 November 2020
Orbit: 532 x 598 km, 97.7° (Epoch: 25 January)

Event Time Altitude Azimuth Distance (km) Brightness Sun altitude
Exits shadow 19:14:13 16° 267° (W) 1,496 4.2 -34.7°
Maximum altitude 19:14:23 16° 270° (W) 1,495 4.2 -34.8°
Drops below altitude 10° 19:16:53 10° 309° (NW) 1,855 4.6 -35.2°
Sets 19:19:47 0° 331° (NNW) 2,773 5.3 -35.6°
